When you browse on this site, cookies collect data to enhance your experience and personalize the content and advertising you see.
Visit our Privacy Policy to learn more. By continuing to use the site, you agree to this use of cookies and data.
  • In Slovakia
  • List of Countries
  • For 7 days
  • Water Temperature
  • Satellite Maps
  • Weather Map
  • Weather Widgets
  • user-avatar
    Login

    Hourly Weather Yerevan

    Today, 24 March, Sunday

    Time Temperature Precipitation Wind Pressure Humidity
    00:00 +7°C° 0.1 mm 3 mps 686 mmHg 47%
    01:00 +7°C° 0.2 mm 3 mps 685 mmHg 50%
    02:00 +7°C° 0.2 mm 3 mps 685 mmHg 53%
    03:00 +7°C° 0 mm 3 mps 684 mmHg 52%
    04:00 +7°C° 0.2 mm 3 mps 684 mmHg 54%
    05:00 +7°C° 0.2 mm 3 mps 684 mmHg 56%
    06:00 +7°C° 0.2 mm 3 mps 684 mmHg 58%
    07:00 +8°C° 0.1 mm 3 mps 684 mmHg 54%
    08:00 +8°C° 0.1 mm 3 mps 684 mmHg 50%
    09:00 +10°C° 0 mm 3 mps 683 mmHg 48%
    10:00 +10°C° 0.1 mm 3 mps 683 mmHg 46%
    11:00 +11°C° 0.1 mm 3 mps 683 mmHg 45%
    12:00 +13°C° 0.1 mm 2 mps 683 mmHg 43%
    13:00 +11°C° 0.2 mm 3 mps 683 mmHg 46%
    14:00 +10°C° 0.2 mm 4 mps 683 mmHg 49%
    15:00 +10°C° 0 mm 4 mps 683 mmHg 52%
    16:00 +8°C° 0.5 mm 4 mps 683 mmHg 55%
    17:00 +7°C° 0.5 mm 4 mps 683 mmHg 58%
    18:00 +6°C° 0.5 mm 4 mps 683 mmHg 61%
    19:00 +6°C° 0.3 mm 4 mps 684 mmHg 62%
    20:00 +5°C° 0.3 mm 3 mps 684 mmHg 62%
    21:00 +5°C° 0.3 mm 3 mps 685 mmHg 62%
    22:00 +5°C° 0.1 mm 3 mps 685 mmHg 62%
    23:00 +4°C° 0.1 mm 3 mps 685 mmHg 62%

    Tomorrow, 25 March, Monday

    Time Temperature Precipitation Wind Pressure Humidity
    00:00 +5°C° 0.1 mm 2 mps 685 mmHg 61%
    01:00 +4°C° 0 mm 2 mps 685 mmHg 61%
    02:00 +4°C° 0 mm 2 mps 685 mmHg 61%
    03:00 +3°C° 0 mm 3 mps 685 mmHg 60%
    04:00 +2°C° 0 mm 3 mps 685 mmHg 60%
    05:00 +2°C° 0 mm 3 mps 685 mmHg 59%
    06:00 +2°C° 0 mm 3 mps 685 mmHg 59%
    07:00 +4°C° 0 mm 3 mps 685 mmHg 54%
    08:00 +5°C° 0 mm 3 mps 685 mmHg 49%
    09:00 +8°C° 0 mm 3 mps 685 mmHg 44%
    10:00 +9°C° 0 mm 3 mps 684 mmHg 43%
    11:00 +10°C° 0 mm 3 mps 684 mmHg 41%
    12:00 +12°C° 0 mm 3 mps 683 mmHg 39%
    13:00 +12°C° 0 mm 3 mps 683 mmHg 39%
    14:00 +13°C° 0 mm 3 mps 683 mmHg 38%
    15:00 +13°C° 0 mm 3 mps 683 mmHg 38%
    16:00 +12°C° 0 mm 3 mps 684 mmHg 40%
    17:00 +12°C° 0 mm 3 mps 684 mmHg 42%
    18:00 +11°C° 0 mm 3 mps 684 mmHg 43%
    19:00 +10°C° 0.1 mm 3 mps 685 mmHg 45%
    20:00 +10°C° 0.1 mm 3 mps 685 mmHg 47%
    21:00 +9°C° 0.1 mm 3 mps 686 mmHg 49%
    22:00 +8°C° 0.1 mm 2 mps 686 mmHg 51%
    23:00 +8°C° 0.1 mm 2 mps 686 mmHg 52%

    Day after tomorrow, 26 March, Tuesday

    Time Temperature Precipitation Wind Pressure Humidity
    00:00 +8°C° 0.1 mm 2 mps 686 mmHg 53%
    01:00 +7°C° 0.1 mm 2 mps 687 mmHg 55%
    02:00 +7°C° 0.1 mm 2 mps 687 mmHg 56%
    03:00 +6°C° 0.1 mm 2 mps 687 mmHg 57%
    04:00 +6°C° 0.1 mm 2 mps 687 mmHg 58%
    05:00 +7°C° 0.1 mm 1 mps 687 mmHg 59%
    06:00 +6°C° 0.1 mm 1 mps 687 mmHg 59%
    07:00 +7°C° 0.1 mm 1 mps 687 mmHg 56%
    08:00 +8°C° 0.1 mm 1 mps 688 mmHg 53%
    09:00 +8°C° 0.1 mm 0 mps 688 mmHg 50%
    10:00 +10°C° 0.1 mm 1 mps 688 mmHg 48%
    11:00 +10°C° 0.1 mm 2 mps 687 mmHg 46%
    12:00 +12°C° 0.1 mm 2 mps 687 mmHg 45%
    13:00 +12°C° 0.1 mm 2 mps 687 mmHg 44%
    14:00 +13°C° 0.1 mm 2 mps 686 mmHg 43%
    15:00 +13°C° 0.1 mm 1 mps 686 mmHg 42%
    16:00 +13°C° 0 mm 1 mps 686 mmHg 43%
    17:00 +12°C° 0 mm 1 mps 686 mmHg 44%
    18:00 +12°C° 0 mm 1 mps 686 mmHg 45%
    19:00 +11°C° 0 mm 1 mps 687 mmHg 47%
    20:00 +11°C° 0 mm 1 mps 687 mmHg 50%
    21:00 +10°C° 0 mm 1 mps 688 mmHg 52%
    22:00 +9°C° 0 mm 0 mps 688 mmHg 54%
    23:00 +8°C° 0 mm 0 mps 687 mmHg 56%

    27 March, Wednesday

    Time Temperature Precipitation Wind Pressure Humidity
    00:00 +7°C° 0 mm 0 mps 687 mmHg 58%
    01:00 +7°C° 0 mm 0 mps 687 mmHg 59%
    02:00 +6°C° 0 mm 0 mps 687 mmHg 60%
    03:00 +7°C° 0 mm 1 mps 687 mmHg 62%
    04:00 +7°C° 0 mm 1 mps 687 mmHg 62%
    05:00 +7°C° 0 mm 1 mps 687 mmHg 63%
    06:00 +6°C° 0 mm 1 mps 687 mmHg 63%
    07:00 +8°C° 0 mm 1 mps 687 mmHg 59%
    08:00 +9°C° 0 mm 1 mps 688 mmHg 54%
    09:00 +10°C° 0 mm 1 mps 688 mmHg 49%
    10:00 +11°C° 0 mm 1 mps 688 mmHg 46%
    11:00 +13°C° 0 mm 1 mps 687 mmHg 43%
    12:00 +14°C° 0 mm 1 mps 687 mmHg 40%
    13:00 +14°C° 0 mm 1 mps 687 mmHg 39%
    14:00 +15°C° 0 mm 1 mps 687 mmHg 38%
    15:00 +15°C° 0 mm 1 mps 687 mmHg 36%
    16:00 +15°C° 0 mm 1 mps 687 mmHg 38%
    17:00 +15°C° 0 mm 1 mps 688 mmHg 39%
    18:00 +14°C° 0 mm 1 mps 688 mmHg 40%
    19:00 +13°C° 0 mm 1 mps 689 mmHg 42%
    20:00 +12°C° 0 mm 1 mps 689 mmHg 45%
    21:00 +12°C° 0 mm 1 mps 690 mmHg 48%
    22:00 +11°C° 0 mm 1 mps 690 mmHg 50%
    23:00 +10°C° 0 mm 1 mps 690 mmHg 52%

    28 March, Thursday

    Time Temperature Precipitation Wind Pressure Humidity
    00:00 +10°C° 0 mm 1 mps 690 mmHg 54%
    01:00 +8°C° 0 mm 0 mps 690 mmHg 56%
    02:00 +8°C° 0 mm 0 mps 690 mmHg 57%
    03:00 +7°C° 0 mm 0 mps 690 mmHg 59%
    04:00 +7°C° 0 mm 0 mps 690 mmHg 60%
    05:00 +6°C° 0 mm 0 mps 690 mmHg 62%
    06:00 +6°C° 0 mm 0 mps 690 mmHg 63%
    07:00 +7°C° 0 mm 0 mps 690 mmHg 58%
    08:00 +9°C° 0 mm 0 mps 690 mmHg 53%
    09:00 +10°C° 0 mm 0 mps 691 mmHg 48%
    10:00 +11°C° 0.1 mm 1 mps 690 mmHg 46%
    11:00 +12°C° 0.1 mm 1 mps 690 mmHg 44%
    12:00 +13°C° 0.1 mm 1 mps 690 mmHg 41%
    13:00 +13°C° 0.1 mm 1 mps 689 mmHg 41%
    14:00 +13°C° 0.1 mm 1 mps 689 mmHg 41%
    15:00 +13°C° 0.1 mm 1 mps 689 mmHg 41%
    16:00 +13°C° 0 mm 1 mps 689 mmHg 41%
    17:00 +13°C° 0 mm 1 mps 689 mmHg 41%
    18:00 +12°C° 0 mm 1 mps 689 mmHg 41%
    19:00 +12°C° 0 mm 1 mps 689 mmHg 43%
    20:00 +11°C° 0 mm 1 mps 690 mmHg 45%
    21:00 +11°C° 0 mm 1 mps 690 mmHg 47%
    22:00 +10°C° 0 mm 1 mps 690 mmHg 48%
    23:00 +9°C° 0 mm 0 mps 690 mmHg 50%

    29 March, Friday

    Time Temperature Precipitation Wind Pressure Humidity
    00:00 +8°C° 0 mm 0 mps 690 mmHg 51%
    01:00 +9°C° 0.1 mm 1 mps 690 mmHg 54%
    02:00 +8°C° 0.1 mm 1 mps 690 mmHg 56%
    03:00 +8°C° 0.1 mm 1 mps 690 mmHg 59%
    04:00 +8°C° 0.2 mm 1 mps 690 mmHg 61%
    05:00 +7°C° 0.2 mm 1 mps 690 mmHg 63%
    06:00 +7°C° 0.2 mm 1 mps 690 mmHg 65%
    07:00 +8°C° 0 mm 1 mps 690 mmHg 59%
    08:00 +9°C° 0 mm 1 mps 691 mmHg 54%
    09:00 +10°C° 0 mm 1 mps 691 mmHg 49%
    10:00 +10°C° 0 mm 1 mps 691 mmHg 45%
    11:00 +11°C° 0 mm 1 mps 690 mmHg 42%
    12:00 +12°C° 0 mm 1 mps 690 mmHg 39%
    13:00 +13°C° 0.1 mm 1 mps 690 mmHg 37%
    14:00 +13°C° 0.1 mm 1 mps 689 mmHg 36%
    15:00 +13°C° 0.1 mm 2 mps 689 mmHg 35%
    16:00 +13°C° 0 mm 2 mps 689 mmHg 36%
    17:00 +13°C° 0 mm 2 mps 689 mmHg 36%
    18:00 +12°C° 0 mm 2 mps 689 mmHg 37%
    19:00 +12°C° 0 mm 2 mps 689 mmHg 39%
    20:00 +10°C° 0 mm 2 mps 690 mmHg 41%
    21:00 +10°C° 0 mm 2 mps 690 mmHg 43%
    22:00 +9°C° 0.1 mm 3 mps 690 mmHg 45%
    23:00 +9°C° 0.1 mm 3 mps 689 mmHg 46%
    Show more